User: anonymous   Login
Location: Unspecified
(0.0000°N, 0.0000°E)
Time: 17:48:28
(UTC+00:00)
Language:

COSMOS 2490 - Orbit

View from above orbital plane
View from above orbital plane
View from above satellite
View from above satellite

Ground track
Ground track

The orbit data is extracted from the following two-line orbital elements,

1 39485U 13076C   18049.76308148  .00000031  00000-0  15470-3 0  9999
2 39485  82.4805 263.3453 0020580 258.9027 100.9744 12.42889514188390
Epoch (UTC): 18 February 2018 18:18:50
Eccentricity: 0.0020580
inclination: 82.4805°
perigee height: 1478 km
apogee height: 1510 km
right ascension of ascending node: 263.3453°
argument of perigee: 258.9027°
revolutions per day: 12.42889514
mean anomaly at epoch: 100.9744°
orbit number at epoch: 18839

The dashed part of the orbit path shows where the satellite is in the earth's shadow,  

DLR